DW8097 Weather Reports


Display with metric or nautical units.
time (UTC)temp
F
wind
direction
speed
MPH
gust
MPH
rain 1hr
in
rain 24hr
in
rain mn
in
humidity
%
barometer
mb
20260504213030 63 302 10.0 17.0 0.00 0.00 0.00 31 998.1
20260504211529 64 329 9.0 17.0 0.00 0.00 0.00 33 997.9
20260504210034 63 333 8.0 15.0 0.00 0.00 0.00 34 998.0
20260504204527 63 315 7.0 17.0 0.00 0.00 0.00 29 997.9
20260504203034 62 329 8.0 21.0 0.00 0.00 0.00 28 997.8
20260504201522 63 334 11.0 19.0 0.00 0.00 0.00 27 997.9
20260504200019 64 324 10.0 22.0 0.00 0.00 0.00 26 997.7
20260504194517 65 245 7.0 22.0 0.00 0.00 0.00 28 997.5
20260504193017 66 279 9.0 21.0 0.00 0.00 0.00 26 997.4
20260504191521 68 292 9.0 20.0 0.00 0.00 0.00 27 997.0
20260504190009 67 289 6.0 23.0 0.00 0.00 0.00 26 996.8
20260504184507 66 342 8.0 18.0 0.00 0.00 0.00 27 996.6
20260504183004 66 11 9.0 21.0 0.00 0.00 0.00 29 996.5
20260504181504 66 36 8.0 20.0 0.00 0.00 0.00 27 996.5
20260504180006 67 324 8.0 15.0 0.00 0.00 0.00 27 996.3
20260504174502 66 260 7.0 16.0 0.00 0.00 0.00 28 996.0
20260504173101 68 35 6.0 13.0 0.00 0.00 0.00 30 996.2
20260504171556 65 248 4.0 16.0 0.00 0.00 0.00 34 996.2
20260504081513 53 257 6.0 12.0 0.00 0.00 0.00 51 997.5
20260504044503 52 190 0.0 2.0 0.00 0.00 0.00 55 1001.2
20260504043110 52 190 0.0 1.0 0.00 0.00 0.00 57 1001.3
20260504041554 52 190 0.0 1.0 0.00 0.00 0.00 57 1001.5
20260504040058 50 190 1.0 2.0 0.00 0.00 0.00 62 1001.7
20260504034549 53 190 0.0 0.0 0.00 0.00 0.00 56 1001.9
20260504033054 53 190 0.0 1.0 0.00 0.00 0.00 56 1002.1
20260504031546 52 190 1.0 2.0 0.00 0.00 0.00 57 1002.3
20260504030042 54 190 0.0 1.0 0.00 0.00 0.00 52 1002.4
20260504024536 55 190 0.0 2.0 0.00 0.00 0.00 51 1002.3
20260504023035 55 221 0.0 2.0 0.00 0.00 0.00 50 1002.3
20260504021530 57 226 0.0 2.0 0.00 0.00 0.00 47 1002.4
20260504020030 58 229 1.0 2.0 0.00 0.00 0.00 45 1002.4
20260504014539 60 209 0.0 2.0 0.00 0.00 0.00 41 1002.4
20260504013015 63 301 0.0 4.0 0.00 0.00 0.00 33 1002.4
20260504011506 65 281 1.0 2.0 0.00 0.00 0.00 29 1002.4
20260504010006 66 297 0.0 3.0 0.00 0.00 0.00 29 1002.4
20260504004506 67 319 2.0 8.0 0.00 0.00 0.00 27 1002.3
20260504003004 68 296 3.0 9.0 0.00 0.00 0.00 26 1002.2
20260504001542 69 314 6.0 12.0 0.00 0.00 0.00 26 1002.3
20260504000041 70 344 5.0 9.0 0.00 0.00 0.00 26 1002.3
20260503234530 71 329 6.0 10.0 0.00 0.00 0.00 25 1002.3
20260503233029 71 314 4.0 12.0 0.00 0.00 0.00 24 1002.3
20260503231529 72 342 3.0 12.0 0.00 0.00 0.00 24 1002.4
20260503230028 71 355 7.0 14.0 0.00 0.00 0.00 22 1002.5
20260503224535 72 342 9.0 14.0 0.00 0.00 0.00 21 1002.5
20260503223025 72 329 7.0 17.0 0.00 0.00 0.00 21 1002.6
20260503221526 72 343 12.0 20.0 0.00 0.00 0.00 22 1002.4
20260503221524 72 9 12.0 20.0 0.00 0.00 0.00 22 1002.4
20260503220024 72 22 7.0 15.0 0.00 0.00 0.00 24 1002.4
20260503214530 72 360 5.0 12.0 0.00 0.00 0.00 25 1002.4